Back to catalog

COSMOS 1375 DEB

AliveLEO
NORAD 18507·DEBRIS·🇷🇺 Russia

Launched Jun 6, 1982 from Plesetsk Cosmodrome

Loading…

Next Passes (next 24 hours)

TLE

FreshSource: Space-Track

Epoch: Sep 14, 2026, 14:37 UTC

1 18507U 82055BG  26257.60930682 -.00000089  00000-0 -12391-4 0  9996
2 18507  65.8346  10.4143 0041106  13.2048   0.8694 13.66313954209300

Track COSMOS 1375 DEB in real time with AllMySat

Download on the App Store